User: anonymous   Login
Location: Vista Encantada
(35.1109°N, 106.5681°W)
Time: 10:07:34
(UTC+00:00)
Language:

Nauka - Orbit

View from above orbital plane
View from above orbital plane
View from above satellite
View from above satellite

Ground track
Ground track

The orbit data is extracted from the following two-line orbital elements,

1 49044U 21066A   21288.56635933  .00004003  00000-0  81639-4 0  9995
2 49044  51.6429 107.4971 0003797 108.2930 317.8662 15.48686955307255
Epoch (UTC): 15 October 2021 13:35:33
Eccentricity: 0.0003797
inclination: 51.6429°
perigee height: 418 km
apogee height: 423 km
right ascension of ascending node: 107.4971°
argument of perigee: 108.2930°
revolutions per day: 15.48686955
mean anomaly at epoch: 317.8662°
orbit number at epoch: 30725

The dashed part of the orbit path shows where the satellite is in the earth's shadow,  

DLR